Location: Bakov nad Jizerou
(50.4784°N, 14.9394°E)
Time: 04:03:22
(UTC+00:00)

Cosmos 1727 Rocket - Pass Details

Date: 02 November 2021
Orbit: 960 x 997 km, 82.9° (Epoch: 07 December)

Event Time Altitude Azimuth Distance (km) Brightness Sun altitude
Rises 16:52:59 0° 338° (NNW) 3,663 7.2 -12.9°
Reaches altitude 10° 16:56:27 10° 319° (NW) 2,708 6.8 -13.5°
Maximum altitude 17:00:05 16° 283° (WNW) 2,262 7.0 -14.1°
Drops below altitude 10° 17:03:43 10° 246° (WSW) 2,695 7.5 -14.6°
Sets 17:07:10 0° 227° (SW) 3,637 7.9 -15.2°
